Date String (YYYY-MM-DD hh:mm:ss) UTC,Instrument flags,Ambient pressure (hPa),Sample flow (lpm),Bypass flow (lpm),Sample temperature (°C),Ambient temperature (°C),ASC tube jacket temperature (°C),LED temperature (°C),Box temperature (°C),Sample RH (%),Span deviation,Mass concentration (μg/m³),Mass concentration (μg/m³),Mass concentration (μg/m³)
DateTimeUTC,F1_M11,P_M11,Q1_M11,Q2_M11,T1_M11,T2_M11,T3_M11,T4_M11,T5_M11,U1_M11,ZSPAN_M11,X0_M11,X2_M11,X1_M11
2022-01-07 15:00:00,,0815.1,5.00,0.00,22.2,21.6,00.0,31.2,24.0,12.0,0000.0,0006.71,0003.81,0003.56
2022-01-07 15:01:00,,0815.1,5.01,0.00,22.2,21.6,00.0,31.2,24.0,12.0,0000.0,0006.95,0003.86,0003.60
2022-01-07 15:02:00,,0815.1,5.00,0.00,22.2,21.6,00.0,31.2,24.0,12.0,0000.0,0006.97,0003.85,0003.58
2022-01-07 15:03:00,,0815.1,4.99,0.00,22.2,21.6,00.0,31.2,24.0,12.0,0000.0,0006.65,0003.77,0003.54
2022-01-07 15:04:00,,0815.2,5.00,0.00,22.2,21.6,00.0,31.2,24.0,12.0,0000.0,0005.66,0003.36,0003.13
2022-01-07 15:05:00,,0815.3,4.99,0.00,22.2,21.6,00.0,31.2,23.9,12.0,0000.0,0005.31,0003.12,0002.76
2022-01-07 15:06:00,,0815.3,4.99,0.00,22.2,21.5,00.0,31.2,23.8,12.1,0000.0,0005.38,0002.88,0002.52
2022-01-07 15:07:00,,0815.3,4.99,0.00,22.1,21.5,00.0,31.2,23.8,12.1,0000.0,0005.23,0002.75,0002.37
2022-01-07 15:08:00,,0815.3,5.01,0.00,22.1,21.6,00.0,31.2,23.8,12.1,0000.0,0004.80,0002.68,0002.28
2022-01-07 15:09:00,,0815.6,4.99,0.00,22.2,22.3,00.0,31.2,24.1,12.1,0000.0,0004.52,0002.59,0002.17
2022-01-07 15:10:00,,0815.4,5.01,0.00,22.4,23.1,00.0,31.3,24.3,12.0,0000.0,0004.40,0002.47,0002.06
2022-01-07 15:11:00,,0815.1,4.99,0.00,22.5,23.2,00.0,31.3,24.4,11.9,0000.0,0004.13,0002.33,0001.94
2022-01-07 15:12:00,,0815.1,5.01,0.00,22.5,23.0,00.0,31.3,24.4,11.9,0000.0,0003.74,0002.15,0001.80
2022-01-07 15:13:00,,0815.0,5.01,0.00,22.5,22.7,00.0,31.4,24.4,11.9,0000.0,0003.55,0002.04,0001.71
2022-01-07 15:14:00,,0815.1,4.99,0.00,22.5,22.6,00.0,31.4,24.4,11.9,0000.0,0003.40,0001.94,0001.63
2022-01-07 15:15:00,,0814.9,5.00,0.00,22.6,22.4,00.0,31.4,24.4,11.9,0000.0,0003.22,0001.82,0001.52
2022-01-07 15:16:00,,0814.9,5.00,0.00,22.6,22.4,00.0,31.4,24.4,11.9,0000.0,0003.22,0001.64,0001.37
2022-01-07 15:17:00,,0814.9,4.99,0.00,22.6,22.3,00.0,31.4,24.4,12.0,0000.0,0002.87,0001.51,0001.24
2022-01-07 15:18:00,,0814.9,5.00,0.00,22.6,22.2,00.0,31.4,24.4,11.9,0000.0,0002.68,0001.38,0001.14
2022-01-07 15:19:00,,0815.0,5.00,0.00,22.6,22.2,00.0,31.5,24.4,11.9,0000.0,0002.44,0001.25,0001.04
2022-01-07 15:20:00,,0815.0,5.01,0.00,22.6,22.1,00.0,31.5,24.3,12.0,0000.0,0002.19,0001.11,0000.96
2022-01-07 15:21:00,,0815.0,4.99,0.00,22.6,22.1,00.0,31.5,24.3,12.1,0000.0,0002.04,0001.02,0000.89
2022-01-07 15:22:00,,0815.0,5.01,0.00,22.5,22.0,00.0,31.5,24.2,12.1,0000.0,0002.02,0000.98,0000.83
2022-01-07 15:23:00,,0815.0,5.00,0.00,22.5,21.9,00.0,31.5,24.2,12.1,0000.0,0002.04,0000.96,0000.78
2022-01-07 15:24:00,,0815.0,4.99,0.00,22.5,21.9,00.0,31.5,24.2,12.0,0000.0,0001.99,0000.94,0000.76
2022-01-07 15:25:00,,0815.0,5.01,0.00,22.5,21.9,00.0,31.5,24.2,12.0,0000.0,0001.98,0000.92,0000.74
2022-01-07 15:26:00,,0815.0,4.98,0.00,22.5,21.9,00.0,31.5,24.2,11.9,0000.0,0001.91,0000.88,0000.73
2022-01-07 15:27:00,,0814.9,5.00,0.00,22.5,21.9,00.0,31.5,24.2,11.9,0000.0,0001.58,0000.86,0000.73
2022-01-07 15:28:00,,0815.0,5.01,0.00,22.5,21.9,00.0,31.5,24.3,12.0,0000.0,0001.30,0000.91,0000.76
2022-01-07 15:29:00,,0815.1,4.99,0.00,22.5,21.9,00.0,31.5,24.2,11.9,0000.0,0001.38,0000.95,0000.78
2022-01-07 15:30:00,,0815.1,5.00,0.00,22.5,21.9,00.0,31.5,24.2,11.9,0000.0,0001.41,0000.96,0000.79
2022-01-07 15:31:00,,0815.2,5.00,0.00,22.5,21.9,00.0,31.5,24.2,11.9,0000.0,0001.45,0000.99,0000.80
2022-01-07 15:32:00,,0815.2,5.00,0.00,22.5,21.9,00.0,31.5,24.2,12.0,0000.0,0001.45,0001.00,0000.81
2022-01-07 15:33:00,,0815.2,4.99,0.00,22.5,21.9,00.0,31.5,24.2,12.1,0000.0,0001.39,0000.97,0000.81
2022-01-07 15:34:00,,0815.2,5.01,0.00,22.5,21.8,00.0,31.5,24.2,12.1,0000.0,0001.23,0000.90,0000.79
2022-01-07 15:35:00,,0815.1,4.99,0.00,22.5,21.8,00.0,31.5,24.2,12.2,0000.0,0001.17,0000.87,0000.76
2022-01-07 15:36:00,,0815.1,4.99,0.00,22.5,21.8,00.0,31.5,24.2,12.3,0000.0,0001.16,0000.87,0000.77
2022-01-07 15:37:00,,0815.1,5.00,0.00,22.5,21.8,00.0,31.5,24.2,12.4,0000.0,0001.16,0000.86,0000.75
2022-01-07 15:38:00,,0815.2,5.00,0.00,22.5,21.8,00.0,31.5,24.2,12.3,0000.0,0001.14,0000.84,0000.72
2022-01-07 15:39:00,,0815.2,5.00,0.00,22.4,21.8,00.0,31.5,24.2,12.0,0000.0,0001.01,0000.75,0000.65
2022-01-07 15:40:00,,0815.4,5.00,0.00,22.4,21.8,00.0,31.5,24.2,11.8,0000.0,0000.99,0000.74,0000.63
2022-01-07 15:41:00,,0815.7,5.00,0.00,22.4,21.8,00.0,31.5,24.1,10.2,0000.0,0002.67,0001.90,0001.62
2022-01-07 15:42:00,,0816.1,5.00,0.00,22.4,21.7,00.0,31.5,24.1,09.7,0000.0,0006.23,0003.34,0003.05
2022-01-07 15:43:00,,0816.0,5.02,0.00,22.4,21.7,00.0,31.4,24.1,09.3,0000.0,0008.23,0004.35,0004.09
2022-01-07 15:44:00,,0816.1,5.01,0.00,22.4,21.7,00.0,31.4,24.1,09.1,0002.7,0009.52,0005.36,0005.01
2022-01-07 15:45:00,,0816.0,4.98,0.00,22.4,21.7,00.0,31.4,24.1,09.1,0003.0,0011.50,0006.37,0005.97
2022-01-07 15:46:00,,0816.1,5.00,0.00,22.4,21.7,00.0,31.4,24.1,09.3,0003.4,0012.63,0007.22,0006.76
2022-01-07 15:47:00,,0815.9,5.00,0.00,22.4,21.7,00.0,31.4,24.1,09.4,0003.4,0013.91,0008.19,0007.66
2022-01-07 15:48:00,,0815.9,5.01,0.00,22.4,21.7,00.0,31.4,24.1,09.4,0003.2,0015.15,0009.15,0008.58
2022-01-07 15:49:00,,0816.0,5.00,0.00,22.4,21.7,00.0,31.4,24.1,09.6,0003.0,0016.39,0010.11,0009.48
2022-01-07 15:50:00,,0816.1,5.00,0.00,22.4,21.7,00.0,31.4,24.1,09.7,0002.9,0017.66,0011.08,0010.37
2022-01-07 15:51:00,,0815.7,5.01,0.00,22.4,21.7,00.0,31.4,24.1,10.0,0003.0,0018.87,0011.99,0011.21
2022-01-07 15:52:00,,0815.7,5.01,0.00,22.4,21.7,00.0,31.4,24.1,10.2,0002.9,0019.81,0012.34,0011.58
2022-01-07 15:53:00,,0815.8,5.00,0.00,22.3,21.7,00.0,31.4,24.1,10.8,0002.6,0018.97,0012.17,0011.43
2022-01-07 15:54:00,,0815.8,5.00,0.00,22.3,21.7,00.0,31.4,24.1,11.3,0002.4,0018.02,0011.70,0010.99
2022-01-07 15:55:00,,0815.8,5.00,0.00,22.3,21.6,00.0,31.4,24.1,11.5,0002.2,0017.31,0011.18,0010.52
2022-01-07 15:56:00,,0815.9,5.01,0.00,22.3,21.6,00.0,31.4,24.1,11.6,0002.3,0015.96,0010.55,0009.92
2022-01-07 15:57:00,,0816.1,4.99,0.00,22.3,21.6,00.0,31.4,24.1,11.7,0002.0,0015.20,0009.92,0009.33
2022-01-07 15:58:00,,0816.0,4.99,0.00,22.4,22.2,00.0,31.4,24.2,11.7,0001.8,0014.65,0009.39,0008.81
2022-01-07 15:59:00,,0815.9,5.00,0.00,22.5,23.1,00.0,31.4,24.5,11.7,0001.9,0014.01,0008.82,0008.25
